| time (UTC) | temp F | wind direction | speed knots | gust knots | rain 1hr in | rain 24hr in | rain mn in | humidity % | barometer mb |
| 20260505152227 | 75 | 197 | 0.0 | 0.0 | 0.00 | 0.00 | 0.00 | 45 | 1017.3 |
| 20260505151726 | 74 | 245 | 0.0 | 0.0 | 0.00 | 0.00 | 0.00 | 48 | 1017.2 |
| 20260505151225 | 73 | 247 | 0.0 | 0.0 | 0.00 | 0.00 | 0.00 | 47 | 1017.4 |
| 20260505150731 | 73 | 211 | 0.0 | 0.0 | 0.00 | 0.00 | 0.00 | 50 | 1017.3 |
| 20260505150251 | 73 | 249 | 0.0 | 0.9 | 0.00 | 0.00 | 0.00 | 50 | 1017.3 |
| 20260505140222 | 68 | 316 | 2.6 | 7.8 | 0.00 | 0.00 | 0.00 | 58 | 1017.2 |
| 20260505130218 | 64 | 275 | 2.6 | 13.0 | 0.00 | 0.00 | 0.00 | 64 | 1017.2 |
| 20260505124729 | 63 | 201 | 2.6 | 7.8 | 0.00 | 0.00 | 0.00 | 65 | 1017.4 |
| 20260505124253 | 63 | 243 | 2.6 | 7.0 | 0.00 | 0.00 | 0.00 | 65 | 1017.4 |
| 20260505123732 | 62 | 261 | 2.6 | 7.0 | 0.00 | 0.00 | 0.00 | 66 | 1017.3 |
| 20260505123241 | 62 | 176 | 1.7 | 8.7 | 0.00 | 0.00 | 0.00 | 66 | 1017.3 |
| 20260505122721 | 62 | 230 | 0.0 | 8.7 | 0.00 | 0.00 | 0.00 | 67 | 1017.4 |
| 20260505122221 | 61 | 199 | 0.0 | 7.8 | 0.00 | 0.00 | 0.00 | 68 | 1017.4 |
| 20260505121727 | 61 | 309 | 0.0 | 10.4 | 0.00 | 0.00 | 0.00 | 68 | 1017.4 |
| 20260505121227 | 61 | 240 | 0.9 | 8.7 | 0.00 | 0.00 | 0.00 | 68 | 1017.4 |
| 20260505120734 | 61 | 221 | 0.0 | 4.3 | 0.00 | 0.00 | 0.00 | 68 | 1017.3 |
| 20260505120235 | 61 | 321 | 0.9 | 9.6 | 0.00 | 0.00 | 0.00 | 68 | 1017.2 |
| 20260505115719 | 60 | 321 | 0.9 | 9.6 | 0.00 | 0.00 | 0.00 | 68 | 1017.2 |
| 20260505115244 | 60 | 321 | 0.0 | 0.0 | 0.00 | 0.00 | 0.00 | 68 | 1017.1 |
| 20260505114751 | 60 | 321 | 0.0 | 5.2 | 0.00 | 0.00 | 0.00 | 69 | 1017.1 |
| 20260505114231 | 60 | 321 | 1.7 | 7.0 | 0.00 | 0.00 | 0.00 | 69 | 1017.1 |
| 20260505113736 | 60 | 321 | 0.9 | 7.0 | 0.00 | 0.00 | 0.00 | 68 | 1017.1 |
| 20260505113218 | 60 | 321 | 1.7 | 5.2 | 0.00 | 0.00 | 0.00 | 69 | 1017.0 |
| 20260505112727 | 60 | 321 | 0.0 | 7.0 | 0.00 | 0.00 | 0.00 | 70 | 1017.0 |
| 20260505112227 | 59 | 321 | 0.0 | 7.0 | 0.00 | 0.00 | 0.00 | 69 | 1017.0 |
| 20260505111728 | 59 | 250 | 0.0 | 5.2 | 0.00 | 0.00 | 0.00 | 69 | 1017.0 |
| 20260505111235 | 59 | 321 | 2.6 | 5.2 | 0.00 | 0.00 | 0.00 | 69 | 1016.9 |
| 20260505110715 | 59 | 256 | 0.9 | 5.2 | 0.00 | 0.00 | 0.00 | 70 | 1016.7 |
| 20260505110214 | 59 | 321 | 0.9 | 7.0 | 0.00 | 0.00 | 0.00 | 70 | 1016.7 |
| 20260505102221 | 58 | 228 | 0.0 | 4.3 | 0.00 | 0.00 | 0.00 | 72 | 1016.3 |
| 20260505101727 | 57 | 321 | 0.9 | 7.0 | 0.00 | 0.00 | 0.00 | 72 | 1016.2 |
| 20260505101228 | 57 | 321 | 0.9 | 7.0 | 0.00 | 0.00 | 0.00 | 73 | 1016.2 |
| 20260505100728 | 57 | 201 | 0.0 | 0.0 | 0.00 | 0.00 | 0.00 | 73 | 1016.1 |
| 20260505100236 | 57 | 321 | 0.0 | 0.0 | 0.00 | 0.00 | 0.00 | 74 | 1016.1 |
| 20260505095714 | 57 | 321 | 0.0 | 4.3 | 0.00 | 0.00 | 0.00 | 73 | 1016.0 |
| 20260505095242 | 57 | 321 | 0.9 | 4.3 | 0.00 | 0.00 | 0.00 | 74 | 1016.1 |
| 20260505094720 | 57 | 321 | 0.0 | 0.9 | 0.00 | 0.00 | 0.00 | 73 | 1016.0 |
| 20260505094224 | 57 | 321 | 0.0 | 0.9 | 0.00 | 0.00 | 0.00 | 73 | 1015.9 |
| 20260505093730 | 57 | 321 | 0.0 | 0.0 | 0.00 | 0.00 | 0.00 | 73 | 1015.9 |
| 20260505093230 | 57 | 321 | 0.0 | 0.0 | 0.00 | 0.00 | 0.00 | 72 | 1015.9 |
| 20260505092737 | 57 | 321 | 0.0 | 0.0 | 0.00 | 0.00 | 0.00 | 72 | 1015.9 |
| 20260505092224 | 57 | 321 | 0.0 | 0.0 | 0.00 | 0.00 | 0.00 | 72 | 1015.9 |
| 20260505091734 | 57 | 321 | 0.0 | 0.0 | 0.00 | 0.00 | 0.00 | 71 | 1015.9 |
| 20260505091212 | 58 | 321 | 0.0 | 0.0 | 0.00 | 0.00 | 0.00 | 71 | 1015.8 |
| 20260505090759 | 58 | 321 | 0.0 | 0.0 | 0.00 | 0.00 | 0.00 | 70 | 1015.8 |
| 20260505090220 | 58 | 321 | 0.0 | 0.0 | 0.00 | 0.00 | 0.00 | 70 | 1015.8 |
| 20260505085721 | 58 | 321 | 0.0 | 0.0 | 0.00 | 0.00 | 0.00 | 69 | 1015.8 |
| 20260505085250 | 58 | 321 | 0.0 | 0.0 | 0.00 | 0.00 | 0.00 | 69 | 1015.8 |
| 20260505084755 | 58 | 226 | 0.0 | 0.0 | 0.00 | 0.00 | 0.00 | 69 | 1015.8 |
| 20260505084213 | 59 | 321 | 0.0 | 0.0 | 0.00 | 0.00 | 0.00 | 69 | 1015.7 |
| 20260505083739 | 59 | 321 | 0.0 | 0.0 | 0.00 | 0.00 | 0.00 | 68 | 1015.6 |
| 20260505083218 | 59 | 321 | 0.0 | 0.0 | 0.00 | 0.00 | 0.00 | 67 | 1015.7 |
| 20260505082717 | 59 | 229 | 0.0 | 0.0 | 0.00 | 0.00 | 0.00 | 67 | 1015.8 |
| 20260505082224 | 59 | 321 | 0.0 | 0.0 | 0.00 | 0.00 | 0.00 | 67 | 1015.8 |
| 20260505081724 | 59 | 321 | 0.0 | 0.0 | 0.00 | 0.00 | 0.00 | 66 | 1015.8 |
| 20260505081251 | 60 | 321 | 0.0 | 0.0 | 0.00 | 0.00 | 0.00 | 66 | 1015.7 |
| 20260505080731 | 60 | 321 | 0.0 | 0.0 | 0.00 | 0.00 | 0.00 | 67 | 1015.6 |
| 20260505080237 | 60 | 321 | 0.0 | 0.0 | 0.00 | 0.00 | 0.00 | 67 | 1015.6 |
| 20260505075717 | 60 | 321 | 0.0 | 0.0 | 0.00 | 0.00 | 0.00 | 65 | 1015.5 |
| 20260505075217 | 60 | 259 | 0.0 | 0.0 | 0.00 | 0.00 | 0.00 | 66 | 1015.4 |
| 20260505074718 | 60 | 290 | 0.0 | 0.0 | 0.00 | 0.00 | 0.00 | 65 | 1015.5 |
| 20260505074226 | 60 | 252 | 0.0 | 0.0 | 0.00 | 0.00 | 0.00 | 64 | 1015.4 |
| 20260505073728 | 61 | 264 | 0.0 | 0.0 | 0.00 | 0.00 | 0.00 | 65 | 1015.4 |
| 20260505073236 | 61 | 257 | 0.0 | 0.0 | 0.00 | 0.00 | 0.00 | 64 | 1015.4 |
| 20260505072717 | 61 | 257 | 0.0 | 0.0 | 0.00 | 0.00 | 0.00 | 64 | 1015.4 |
| 20260505072237 | 61 | 257 | 0.0 | 0.0 | 0.00 | 0.00 | 0.00 | 64 | 1015.4 |
| 20260505071743 | 61 | 241 | 0.0 | 0.0 | 0.00 | 0.00 | 0.00 | 64 | 1015.3 |
| 20260505071229 | 61 | 213 | 0.0 | 0.0 | 0.00 | 0.00 | 0.00 | 64 | 1015.3 |
| 20260505070713 | 61 | 218 | 0.0 | 0.0 | 0.00 | 0.00 | 0.00 | 63 | 1015.3 |
| 20260505070235 | 61 | 249 | 0.0 | 0.0 | 0.00 | 0.00 | 0.00 | 63 | 1015.3 |
| 20260505065722 | 61 | 238 | 0.0 | 3.5 | 0.00 | 0.00 | 0.00 | 63 | 1015.3 |
| 20260505065223 | 61 | 238 | 0.0 | 7.0 | 0.00 | 0.00 | 0.00 | 63 | 1015.3 |
| 20260505064731 | 61 | 166 | 0.9 | 4.3 | 0.00 | 0.00 | 0.00 | 63 | 1015.3 |
| 20260505064231 | 61 | 177 | 0.0 | 7.0 | 0.00 | 0.00 | 0.00 | 63 | 1015.3 |
| 20260505063711 | 61 | 243 | 0.9 | 7.0 | 0.00 | 0.00 | 0.00 | 64 | 1015.2 |
| 20260505063220 | 61 | 226 | 0.0 | 3.5 | 0.00 | 0.00 | 0.00 | 64 | 1015.2 |
| 20260505062719 | 62 | 230 | 0.0 | 0.9 | 0.00 | 0.00 | 0.00 | 64 | 1015.2 |
| 20260505062221 | 62 | 219 | 0.0 | 3.5 | 0.00 | 0.00 | 0.00 | 63 | 1015.2 |
| 20260505061727 | 62 | 187 | 0.9 | 3.5 | 0.00 | 0.00 | 0.00 | 62 | 1015.2 |
| 20260505061227 | 62 | 128 | 0.0 | 0.0 | 0.00 | 0.00 | 0.00 | 63 | 1015.3 |
| 20260505060731 | 62 | 95 | 0.0 | 0.0 | 0.00 | 0.00 | 0.00 | 62 | 1015.2 |
| 20260505060230 | 62 | 240 | 0.0 | 0.0 | 0.00 | 0.00 | 0.00 | 62 | 1015.2 |
| 20260505055731 | 62 | 215 | 0.0 | 0.0 | 0.00 | 0.00 | 0.00 | 62 | 1015.2 |
| 20260505055238 | 62 | 200 | 0.0 | 0.0 | 0.00 | 0.00 | 0.00 | 62 | 1015.3 |
| 20260505054741 | 62 | 187 | 0.0 | 0.0 | 0.00 | 0.00 | 0.00 | 62 | 1015.2 |
| 20260505054227 | 62 | 159 | 0.0 | 0.0 | 0.00 | 0.00 | 0.00 | 61 | 1015.2 |
| 20260505053728 | 63 | 183 | 0.0 | 0.0 | 0.00 | 0.00 | 0.00 | 61 | 1015.2 |
| 20260505053230 | 63 | 230 | 0.0 | 0.9 | 0.00 | 0.00 | 0.00 | 61 | 1015.3 |
| 20260505052713 | 63 | 199 | 0.0 | 0.9 | 0.00 | 0.00 | 0.00 | 61 | 1015.4 |
| 20260505052222 | 63 | 249 | 0.0 | 0.0 | 0.00 | 0.00 | 0.00 | 60 | 1015.4 |
| 20260505051725 | 63 | 234 | 0.0 | 0.0 | 0.00 | 0.00 | 0.00 | 61 | 1015.4 |
| 20260505051233 | 63 | 258 | 0.0 | 0.0 | 0.00 | 0.00 | 0.00 | 60 | 1015.4 |
| 20260505050736 | 63 | 216 | 0.0 | 0.0 | 0.00 | 0.00 | 0.00 | 60 | 1015.4 |
| 20260505050222 | 64 | 211 | 0.0 | 0.0 | 0.00 | 0.00 | 0.00 | 59 | 1015.4 |
| 20260505041755 | 65 | 243 | 1.7 | 6.1 | 0.00 | 0.00 | 0.00 | 58 | 1015.2 |
| 20260505041215 | 65 | 206 | 0.0 | 7.0 | 0.00 | 0.00 | 0.00 | 58 | 1015.2 |
| 20260505040718 | 65 | 140 | 1.7 | 7.0 | 0.00 | 0.00 | 0.00 | 58 | 1015.2 |
| 20260505040246 | 65 | 220 | 0.0 | 0.0 | 0.00 | 0.00 | 0.00 | 58 | 1015.2 |
| 20260505035733 | 65 | 207 | 0.0 | 0.0 | 0.00 | 0.00 | 0.00 | 58 | 1015.2 |
| 20260505035214 | 65 | 234 | 0.0 | 0.0 | 0.00 | 0.00 | 0.00 | 58 | 1015.2 |
| 20260505034717 | 66 | 221 | 0.0 | 0.0 | 0.00 | 0.00 | 0.00 | 57 | 1015.2 |
| 20260505034219 | 66 | 234 | 0.0 | 0.9 | 0.00 | 0.00 | 0.00 | 57 | 1015.1 |
| 20260505033727 | 66 | 155 | 0.0 | 0.9 | 0.00 | 0.00 | 0.00 | 56 | 1015.2 |
| 20260505033236 | 66 | 245 | 0.0 | 0.0 | 0.00 | 0.00 | 0.00 | 56 | 1015.1 |
| 20260505032718 | 66 | 257 | 0.0 | 4.3 | 0.00 | 0.00 | 0.00 | 56 | 1015.1 |
| 20260505032241 | 66 | 250 | 0.0 | 4.3 | 0.00 | 0.00 | 0.00 | 56 | 1015.2 |
| 20260505031728 | 66 | 184 | 0.0 | 0.0 | 0.00 | 0.00 | 0.00 | 55 | 1015.2 |
| 20260505031228 | 66 | 231 | 0.0 | 0.0 | 0.00 | 0.00 | 0.00 | 55 | 1015.1 |
| 20260505030737 | 67 | 190 | 0.0 | 3.5 | 0.00 | 0.00 | 0.00 | 55 | 1015.2 |
| 20260505030217 | 67 | 165 | 0.0 | 9.6 | 0.00 | 0.00 | 0.00 | 54 | 1015.2 |
| 20260505025720 | 67 | 218 | 0.0 | 8.7 | 0.00 | 0.00 | 0.00 | 54 | 1015.2 |
| 20260505025229 | 67 | 201 | 0.9 | 11.3 | 0.00 | 0.00 | 0.00 | 53 | 1015.1 |
| 20260505024726 | 67 | 270 | 0.0 | 11.3 | 0.00 | 0.00 | 0.00 | 52 | 1015.1 |
| 20260505024232 | 67 | 230 | 0.9 | 5.2 | 0.00 | 0.00 | 0.00 | 51 | 1015.1 |
| 20260505023733 | 67 | 203 | 0.0 | 0.9 | 0.00 | 0.00 | 0.00 | 50 | 1015.1 |
| 20260505023213 | 67 | 193 | 0.0 | 0.9 | 0.00 | 0.00 | 0.00 | 49 | 1015.1 |
| 20260505022722 | 68 | 232 | 0.0 | 0.0 | 0.00 | 0.00 | 0.00 | 47 | 1015.0 |
| 20260505022225 | 68 | 265 | 0.0 | 3.5 | 0.00 | 0.00 | 0.00 | 46 | 1014.9 |
| 20260505021732 | 67 | 240 | 0.0 | 3.5 | 0.00 | 0.00 | 0.00 | 44 | 1014.9 |
| 20260505021214 | 67 | 220 | 0.0 | 0.9 | 0.00 | 0.00 | 0.00 | 43 | 1014.8 |
| 20260505020736 | 67 | 267 | 0.0 | 0.0 | 0.00 | 0.00 | 0.00 | 44 | 1014.8 |
| 20260505020221 | 67 | 190 | 0.0 | 0.0 | 0.00 | 0.00 | 0.00 | 45 | 1014.7 |
| 20260505015723 | 67 | 296 | 0.0 | 0.0 | 0.00 | 0.00 | 0.00 | 47 | 1014.7 |
| 20260505015245 | 67 | 238 | 0.0 | 0.0 | 0.00 | 0.00 | 0.00 | 46 | 1014.6 |
| 20260505014726 | 67 | 234 | 0.0 | 0.0 | 0.00 | 0.00 | 0.00 | 45 | 1014.6 |
| 20260505014212 | 67 | 266 | 0.0 | 0.0 | 0.00 | 0.00 | 0.00 | 44 | 1014.5 |
| 20260505013736 | 67 | 166 | 0.0 | 0.0 | 0.00 | 0.00 | 0.00 | 46 | 1014.5 |
| 20260505013222 | 67 | 203 | 0.0 | 0.0 | 0.00 | 0.00 | 0.00 | 45 | 1014.5 |
| 20260505012724 | 67 | 343 | 0.0 | 0.0 | 0.00 | 0.00 | 0.00 | 45 | 1014.4 |
| 20260505012224 | 67 | 345 | 0.0 | 0.0 | 0.00 | 0.00 | 0.00 | 45 | 1014.4 |
| 20260505011712 | 67 | 117 | 0.0 | 0.0 | 0.00 | 0.00 | 0.00 | 44 | 1014.3 |
| 20260505011218 | 67 | 247 | 0.0 | 0.0 | 0.00 | 0.00 | 0.00 | 44 | 1014.3 |
| 20260505010720 | 67 | 260 | 0.0 | 0.0 | 0.00 | 0.00 | 0.00 | 44 | 1014.3 |
| 20260505010222 | 67 | 246 | 0.0 | 0.0 | 0.00 | 0.00 | 0.00 | 45 | 1014.2 |
| 20260505005729 | 68 | 153 | 0.0 | 0.0 | 0.00 | 0.00 | 0.00 | 42 | 1014.1 |
| 20260505005230 | 68 | 153 | 0.0 | 0.0 | 0.00 | 0.00 | 0.00 | 42 | 1014.1 |
| 20260505004738 | 68 | 153 | 0.0 | 0.0 | 0.00 | 0.00 | 0.00 | 41 | 1014.0 |
| 20260505004218 | 69 | 153 | 0.0 | 0.0 | 0.00 | 0.00 | 0.00 | 41 | 1013.9 |
| 20260505003720 | 69 | 153 | 0.0 | 0.0 | 0.00 | 0.00 | 0.00 | 39 | 1013.9 |
| 20260505003219 | 69 | 153 | 0.0 | 0.0 | 0.00 | 0.00 | 0.00 | 39 | 1013.8 |
| 20260505002726 | 70 | 153 | 0.0 | 0.0 | 0.00 | 0.00 | 0.00 | 38 | 1013.7 |
| 20260505002226 | 70 | 153 | 0.0 | 0.0 | 0.00 | 0.00 | 0.00 | 38 | 1013.7 |
| 20260505001713 | 70 | 172 | 0.0 | 0.0 | 0.00 | 0.00 | 0.00 | 38 | 1013.7 |
| 20260505001212 | 71 | 286 | 0.0 | 0.0 | 0.00 | 0.00 | 0.00 | 35 | 1013.7 |
| 20260505000714 | 71 | 288 | 0.0 | 0.0 | 0.00 | 0.00 | 0.00 | 35 | 1013.5 |
| 20260505000223 | 72 | 292 | 0.0 | 0.0 | 0.00 | 0.00 | 0.00 | 35 | 1013.5 |
| 20260504235723 | 72 | 292 | 0.0 | 0.0 | 0.00 | 0.00 | 0.00 | 32 | 1013.5 |
| 20260504235250 | 72 | 292 | 0.0 | 0.0 | 0.00 | 0.00 | 0.00 | 32 | 1013.5 |
| 20260504234711 | 73 | 292 | 0.0 | 0.0 | 0.00 | 0.00 | 0.00 | 31 | 1013.3 |
| 20260504234221 | 73 | 292 | 0.0 | 0.0 | 0.00 | 0.00 | 0.00 | 32 | 1013.3 |
| 20260504233722 | 73 | 292 | 0.0 | 0.0 | 0.00 | 0.00 | 0.00 | 30 | 1013.3 |
| 20260504233223 | 74 | 292 | 0.0 | 0.0 | 0.00 | 0.00 | 0.00 | 31 | 1013.3 |
| 20260504232728 | 74 | 292 | 0.0 | 4.3 | 0.00 | 0.00 | 0.00 | 31 | 1013.2 |
| 20260504232228 | 74 | 249 | 0.0 | 0.9 | 0.00 | 0.00 | 0.00 | 34 | 1013.2 |
| 20260504231735 | 74 | 253 | 0.0 | 0.0 | 0.00 | 0.00 | 0.00 | 34 | 1013.2 |
| 20260504231214 | 75 | 278 | 0.0 | 0.0 | 0.00 | 0.00 | 0.00 | 30 | 1013.1 |
| 20260504230718 | 75 | 149 | 0.0 | 0.0 | 0.00 | 0.00 | 0.00 | 31 | 1013.2 |
| 20260504230241 | 75 | 188 | 0.0 | 0.0 | 0.00 | 0.00 | 0.00 | 31 | 1013.2 |
| 20260504225729 | 75 | 196 | 0.0 | 0.9 | 0.00 | 0.00 | 0.00 | 29 | 1013.1 |
| 20260504225231 | 75 | 230 | 0.0 | 4.3 | 0.00 | 0.00 | 0.00 | 32 | 1013.2 |
| 20260504224711 | 76 | 268 | 1.7 | 3.5 | 0.00 | 0.00 | 0.00 | 30 | 1013.2 |
| 20260504224219 | 76 | 253 | 0.0 | 0.9 | 0.00 | 0.00 | 0.00 | 27 | 1013.2 |
| 20260504223717 | 76 | 251 | 0.0 | 0.9 | 0.00 | 0.00 | 0.00 | 28 | 1013.3 |
| 20260504223226 | 76 | 261 | 0.0 | 0.0 | 0.00 | 0.00 | 0.00 | 28 | 1013.3 |
| 20260504222728 | 76 | 179 | 0.0 | 0.0 | 0.00 | 0.00 | 0.00 | 29 | 1013.4 |
| 20260504222225 | 76 | 188 | 0.0 | 0.0 | 0.00 | 0.00 | 0.00 | 29 | 1013.2 |
| 20260504221732 | 76 | 212 | 0.0 | 0.0 | 0.00 | 0.00 | 0.00 | 32 | 1013.3 |
| 20260504221233 | 76 | 212 | 0.0 | 0.0 | 0.00 | 0.00 | 0.00 | 31 | 1013.3 |
| 20260504220741 | 76 | 157 | 0.0 | 0.0 | 0.00 | 0.00 | 0.00 | 32 | 1013.3 |
| 20260504220220 | 76 | 203 | 0.0 | 0.9 | 0.00 | 0.00 | 0.00 | 29 | 1013.2 |
| 20260504215720 | 76 | 195 | 0.0 | 0.9 | 0.00 | 0.00 | 0.00 | 28 | 1013.2 |
| 20260504215226 | 76 | 255 | 0.0 | 0.0 | 0.00 | 0.00 | 0.00 | 28 | 1013.3 |
| 20260504214727 | 76 | 229 | 0.0 | 0.0 | 0.00 | 0.00 | 0.00 | 29 | 1013.4 |
| 20260504214233 | 76 | 238 | 0.0 | 0.0 | 0.00 | 0.00 | 0.00 | 28 | 1013.4 |
| 20260504213714 | 76 | 174 | 0.0 | 5.2 | 0.00 | 0.00 | 0.00 | 29 | 1013.3 |
| 20260504213301 | 76 | 278 | 0.9 | 7.8 | 0.00 | 0.00 | 0.00 | 28 | 1013.3 |
| 20260504212720 | 77 | 292 | 1.7 | 7.8 | 0.00 | 0.00 | 0.00 | 28 | 1013.4 |
| 20260504212247 | 77 | 209 | 0.0 | 0.0 | 0.00 | 0.00 | 0.00 | 28 | 1013.3 |
| 20260504211727 | 77 | 223 | 0.0 | 0.0 | 0.00 | 0.00 | 0.00 | 29 | 1013.4 |
| 20260504211228 | 77 | 263 | 0.0 | 0.0 | 0.00 | 0.00 | 0.00 | 28 | 1013.4 |
| 20260504210736 | 77 | 259 | 0.0 | 2.6 | 0.00 | 0.00 | 0.00 | 29 | 1013.5 |
| 20260504210216 | 77 | 215 | 0.0 | 11.3 | 0.00 | 0.00 | 0.00 | 27 | 1013.4 |
| 20260504205718 | 77 | 257 | 1.7 | 11.3 | 0.00 | 0.00 | 0.00 | 28 | 1013.5 |
| 20260504205223 | 77 | 206 | 0.0 | 0.0 | 0.00 | 0.00 | 0.00 | 28 | 1013.5 |
| 20260504204722 | 77 | 215 | 0.0 | 0.0 | 0.00 | 0.00 | 0.00 | 28 | 1013.5 |
| 20260504204224 | 77 | 228 | 0.0 | 0.0 | 0.00 | 0.00 | 0.00 | 28 | 1013.5 |
| 20260504203732 | 77 | 193 | 0.0 | 0.0 | 0.00 | 0.00 | 0.00 | 28 | 1013.6 |
| 20260504203237 | 77 | 248 | 0.0 | 0.0 | 0.00 | 0.00 | 0.00 | 28 | 1013.7 |
| 20260504202718 | 77 | 269 | 0.0 | 0.0 | 0.00 | 0.00 | 0.00 | 28 | 1013.8 |
| 20260504202217 | 77 | 238 | 0.0 | 0.0 | 0.00 | 0.00 | 0.00 | 28 | 1013.9 |
| 20260504201718 | 77 | 230 | 0.0 | 0.0 | 0.00 | 0.00 | 0.00 | 28 | 1014.0 |
| 20260504201225 | 76 | 245 | 0.0 | 0.0 | 0.00 | 0.00 | 0.00 | 27 | 1013.9 |
| 20260504200727 | 76 | 212 | 0.0 | 0.0 | 0.00 | 0.00 | 0.00 | 28 | 1014.0 |
| 20260504200234 | 76 | 207 | 0.0 | 0.0 | 0.00 | 0.00 | 0.00 | 28 | 1013.8 |
| 20260504195713 | 76 | 336 | 0.0 | 0.0 | 0.00 | 0.00 | 0.00 | 27 | 1014.0 |
| 20260504195214 | 76 | 278 | 0.0 | 0.0 | 0.00 | 0.00 | 0.00 | 28 | 1014.1 |
| 20260504194739 | 76 | 246 | 0.0 | 0.0 | 0.00 | 0.00 | 0.00 | 28 | 1014.2 |
| 20260504194241 | 77 | 147 | 0.0 | 2.6 | 0.00 | 0.00 | 0.00 | 29 | 1014.2 |
| 20260504193747 | 77 | 169 | 0.0 | 8.7 | 0.00 | 0.00 | 0.00 | 28 | 1014.3 |
| 20260504193226 | 77 | 195 | 0.9 | 8.7 | 0.00 | 0.00 | 0.00 | 28 | 1014.4 |
| 20260504192733 | 77 | 179 | 1.7 | 5.2 | 0.00 | 0.00 | 0.00 | 29 | 1014.4 |
| 20260504192213 | 77 | 226 | 1.7 | 8.7 | 0.00 | 0.00 | 0.00 | 28 | 1014.5 |
| 20260504191715 | 77 | 236 | 2.6 | 8.7 | 0.00 | 0.00 | 0.00 | 28 | 1014.7 |
| 20260504191226 | 77 | 248 | 0.0 | 7.0 | 0.00 | 0.00 | 0.00 | 29 | 1014.6 |
| 20260504190726 | 76 | 242 | 1.7 | 7.0 | 0.00 | 0.00 | 0.00 | 27 | 1014.5 |
| 20260504190225 | 77 | 217 | 0.0 | 0.0 | 0.00 | 0.00 | 0.00 | 28 | 1014.7 |
| 20260504185752 | 77 | 204 | 0.0 | 0.0 | 0.00 | 0.00 | 0.00 | 28 | 1014.7 |
| 20260504185239 | 77 | 249 | 0.0 | 0.0 | 0.00 | 0.00 | 0.00 | 28 | 1014.7 |
| 20260504184719 | 77 | 272 | 0.0 | 0.9 | 0.00 | 0.00 | 0.00 | 27 | 1014.7 |
| 20260504184217 | 76 | 249 | 0.0 | 0.9 | 0.00 | 0.00 | 0.00 | 27 | 1014.9 |
| 20260504183725 | 76 | 332 | 0.0 | 0.0 | 0.00 | 0.00 | 0.00 | 30 | 1014.9 |
| 20260504183223 | 76 | 189 | 0.0 | 1.7 | 0.00 | 0.00 | 0.00 | 29 | 1015.1 |
| 20260504182753 | 77 | 230 | 0.0 | 10.4 | 0.00 | 0.00 | 0.00 | 28 | 1015.1 |
| 20260504182232 | 76 | 233 | 2.6 | 12.2 | 0.00 | 0.00 | 0.00 | 29 | 1015.1 |
| 20260504181719 | 76 | 247 | 0.9 | 12.2 | 0.00 | 0.00 | 0.00 | 29 | 1015.2 |
| 20260504181219 | 76 | 316 | 0.9 | 6.1 | 0.00 | 0.00 | 0.00 | 29 | 1015.2 |
| 20260504180723 | 76 | 326 | 1.7 | 12.2 | 0.00 | 0.00 | 0.00 | 29 | 1015.4 |
| 20260504180231 | 76 | 195 | 2.6 | 12.2 | 0.00 | 0.00 | 0.00 | 29 | 1015.4 |
| 20260504175731 | 76 | 205 | 3.5 | 7.8 | 0.00 | 0.00 | 0.00 | 31 | 1015.4 |
| 20260504175234 | 76 | 245 | 0.9 | 5.2 | 0.00 | 0.00 | 0.00 | 31 | 1015.5 |
| 20260504174737 | 75 | 241 | 0.0 | 3.5 | 0.00 | 0.00 | 0.00 | 28 | 1015.4 |
| 20260504174219 | 75 | 167 | 0.0 | 3.5 | 0.00 | 0.00 | 0.00 | 31 | 1015.4 |
| 20260504173729 | 75 | 232 | 0.9 | 3.5 | 0.00 | 0.00 | 0.00 | 29 | 1015.5 |
| 20260504173256 | 75 | 272 | 0.0 | 0.9 | 0.00 | 0.00 | 0.00 | 31 | 1015.5 |
| 20260504172721 | 75 | 213 | 0.0 | 0.0 | 0.00 | 0.00 | 0.00 | 30 | 1015.6 |
| 20260504172221 | 75 | 255 | 0.0 | 0.0 | 0.00 | 0.00 | 0.00 | 29 | 1015.7 |
| 20260504171721 | 75 | 210 | 0.0 | 0.9 | 0.00 | 0.00 | 0.00 | 28 | 1015.9 |
| 20260504171229 | 76 | 236 | 0.0 | 3.5 | 0.00 | 0.00 | 0.00 | 32 | 1016.0 |
| 20260504170731 | 76 | 216 | 0.0 | 3.5 | 0.00 | 0.00 | 0.00 | 31 | 1016.0 |
| 20260504170238 | 75 | 333 | 0.9 | 3.5 | 0.00 | 0.00 | 0.00 | 31 | 1016.1 |
| 20260504160255 | 72 | 263 | 2.6 | 7.0 | 0.00 | 0.00 | 0.00 | 40 | 1016.9 |